Location: Marsån
(66.4167°N, 22.2833°E)
Time: 09:43:49
(UTC+00:00)

Cosmos 2026 Rocket - Pass Details

Date: 24 February 2024
Orbit: 939 x 999 km, 82.9° (Epoch: 15 April)

Event Time Altitude Azimuth Distance (km) Brightness Sun altitude
Rises 18:10:56 0° 343° (NNW) 3,626 7.5 -17.2°
Reaches altitude 10° 18:13:25 10° 342° (NNW) 2,683 6.8 -17.5°
Maximum altitude 18:19:31 73° 260° (W) 1,004 4.2 -18.1°
Drops below altitude 10° 18:25:40 10° 177° (S) 2,704 6.1 -18.6°
Sets 18:28:11 0° 175° (S) 3,656 6.8 -18.9°
